User: anonymous   Login
Location: Clatteringshaws Loch
(55.0508°N, 4.2860°W)
Time: 00:11:13
(UTC+01:00)
Language:

Cosmos 2221 Rocket - Orbit

View from above orbital plane
View from above orbital plane
View from above satellite
View from above satellite

Ground track
Ground track

The orbit data is extracted from the following two-line orbital elements,

1 22237U 92080B   16122.55384072  .00000159  00000-0  18697-4 0  9991
2 22237  82.5100 140.6272 0021276 110.1171  49.8961 14.78256430262621
Epoch (UTC): 01 May 2016 13:17:31
Eccentricity: 0.0021276
inclination: 82.5100°
perigee height: 620 km
apogee height: 650 km
right ascension of ascending node: 140.6272°
argument of perigee: 110.1171°
revolutions per day: 14.78256430
mean anomaly at epoch: 49.8961°
orbit number at epoch: 26262

The dashed part of the orbit path shows where the satellite is in the earth's shadow,  

DLR